When you browse on this site, cookies collect data to enhance your experience and personalize the content and advertising you see.
Visit our Privacy Policy to learn more. By continuing to use the site, you agree to this use of cookies and data.
  • In Latvia
  • List of Countries
  • For 7 days
  • Water Temperature
  • Satellite Maps
  • Weather Map
  • Weather Widgets
  • user-avatar
    Login

    Hourly Weather Obrazejowice

    Today, 20 February, Wednesday

    Time Temperature Precipitation Wind Pressure Humidity
    00:00 +5°C° 0.5 mm 5 mps 740 mmHg 84%
    01:00 +4°C° 0 mm 4 mps 740 mmHg 85%
    02:00 +4°C° 0 mm 4 mps 740 mmHg 86%
    03:00 +3°C° 0 mm 4 mps 740 mmHg 87%
    04:00 +1°C° 0 mm 5 mps 740 mmHg 88%
    05:00 +1°C° 0 mm 5 mps 741 mmHg 87%
    06:00 +1°C° 0 mm 5 mps 741 mmHg 87%
    07:00 +1°C° 0 mm 5 mps 741 mmHg 87%
    08:00 +2°C° 0 mm 5 mps 741 mmHg 83%
    09:00 +2°C° 0 mm 6 mps 742 mmHg 80%
    10:00 +3°C° 0 mm 7 mps 742 mmHg 76%
    11:00 +3°C° 0 mm 6 mps 742 mmHg 74%
    12:00 +3°C° 0 mm 6 mps 742 mmHg 72%
    13:00 +4°C° 0 mm 6 mps 742 mmHg 70%
    14:00 +4°C° 0 mm 6 mps 743 mmHg 69%
    15:00 +4°C° 0 mm 6 mps 743 mmHg 68%
    16:00 +5°C° 0 mm 5 mps 743 mmHg 68%
    17:00 +3°C° 0.1 mm 5 mps 743 mmHg 71%
    18:00 +4°C° 0.1 mm 4 mps 744 mmHg 74%
    19:00 +4°C° 0.1 mm 3 mps 744 mmHg 78%
    20:00 +3°C° 0 mm 3 mps 744 mmHg 78%
    21:00 +3°C° 0 mm 3 mps 745 mmHg 79%
    22:00 +3°C° 0 mm 3 mps 745 mmHg 80%
    23:00 +3°C° 0 mm 3 mps 745 mmHg 81%

    Tomorrow, 21 February, Thursday

    Time Temperature Precipitation Wind Pressure Humidity
    00:00 +3°C° 0 mm 3 mps 745 mmHg 82%
    01:00 +3°C° 0 mm 3 mps 745 mmHg 82%
    02:00 +3°C° 0 mm 4 mps 745 mmHg 83%
    03:00 +3°C° 0 mm 4 mps 745 mmHg 83%
    04:00 +3°C° 0 mm 4 mps 745 mmHg 83%
    05:00 +3°C° 0 mm 4 mps 746 mmHg 83%
    06:00 +3°C° 0 mm 4 mps 746 mmHg 83%
    07:00 +3°C° 0 mm 4 mps 746 mmHg 82%
    08:00 +3°C° 0 mm 5 mps 746 mmHg 78%
    09:00 +3°C° 0 mm 5 mps 746 mmHg 74%
    10:00 +5°C° 0 mm 5 mps 746 mmHg 69%
    11:00 +6°C° 0 mm 5 mps 745 mmHg 67%
    12:00 +6°C° 0 mm 5 mps 745 mmHg 66%
    13:00 +6°C° 0 mm 5 mps 744 mmHg 64%
    14:00 +6°C° 0.5 mm 5 mps 744 mmHg 67%
    15:00 +6°C° 0.5 mm 5 mps 744 mmHg 70%
    16:00 +6°C° 0.5 mm 5 mps 743 mmHg 73%
    17:00 +4°C° 0.9 mm 6 mps 743 mmHg 76%
    18:00 +4°C° 0.9 mm 6 mps 743 mmHg 79%
    19:00 +4°C° 0.9 mm 7 mps 743 mmHg 81%
    20:00 +4°C° 0.4 mm 7 mps 743 mmHg 81%
    21:00 +4°C° 0.4 mm 7 mps 743 mmHg 81%
    22:00 +4°C° 0.4 mm 7 mps 742 mmHg 81%
    23:00 +4°C° 0.3 mm 6 mps 742 mmHg 83%

    Day after tomorrow, 22 February, Friday

    Time Temperature Precipitation Wind Pressure Humidity
    00:00 +4°C° 0.3 mm 6 mps 742 mmHg 85%
    01:00 +4°C° 0.3 mm 6 mps 741 mmHg 88%
    02:00 +4°C° 0.9 mm 6 mps 741 mmHg 88%
    03:00 +4°C° 0.9 mm 6 mps 741 mmHg 89%
    04:00 +4°C° 0.9 mm 7 mps 741 mmHg 89%
    05:00 +4°C° 0.5 mm 6 mps 741 mmHg 89%
    06:00 +4°C° 0.5 mm 6 mps 742 mmHg 89%
    07:00 +4°C° 0.5 mm 6 mps 742 mmHg 89%
    08:00 +2°C° 0.4 mm 6 mps 743 mmHg 85%
    09:00 0°C° 0.4 mm 7 mps 745 mmHg 80%
    10:00 -2°C° 0.4 mm 7 mps 746 mmHg 76%
    11:00 -2°C° 0 mm 7 mps 747 mmHg 70%
    12:00 -2°C° 0 mm 6 mps 748 mmHg 65%
    13:00 -2°C° 0 mm 6 mps 749 mmHg 60%
    14:00 -2°C° 0 mm 6 mps 750 mmHg 58%
    15:00 -3°C° 0 mm 6 mps 750 mmHg 56%
    16:00 -3°C° 0 mm 6 mps 751 mmHg 54%
    17:00 -4°C° 0 mm 6 mps 752 mmHg 57%
    18:00 -5°C° 0 mm 5 mps 752 mmHg 59%
    19:00 -6°C° 0 mm 5 mps 753 mmHg 62%
    20:00 -6°C° 0 mm 5 mps 753 mmHg 60%
    21:00 -6°C° 0 mm 5 mps 754 mmHg 58%
    22:00 -7°C° 0 mm 5 mps 754 mmHg 56%
    23:00 -7°C° 0 mm 4 mps 755 mmHg 53%

    23 February, Saturday

    Time Temperature Precipitation Wind Pressure Humidity
    00:00 -7°C° 0 mm 4 mps 755 mmHg 50%
    01:00 -7°C° 0 mm 4 mps 755 mmHg 48%
    02:00 -7°C° 0 mm 4 mps 755 mmHg 46%
    03:00 -7°C° 0 mm 4 mps 755 mmHg 45%
    04:00 -8°C° 0 mm 4 mps 755 mmHg 43%
    05:00 -8°C° 0 mm 4 mps 756 mmHg 43%
    06:00 -7°C° 0 mm 3 mps 756 mmHg 43%
    07:00 -7°C° 0 mm 3 mps 756 mmHg 43%
    08:00 -7°C° 0 mm 3 mps 757 mmHg 40%
    09:00 -7°C° 0 mm 4 mps 757 mmHg 38%
    10:00 -5°C° 0 mm 4 mps 757 mmHg 35%
    11:00 -5°C° 0 mm 4 mps 757 mmHg 33%
    12:00 -4°C° 0 mm 3 mps 757 mmHg 30%
    13:00 -2°C° 0 mm 3 mps 757 mmHg 27%
    14:00 -2°C° 0 mm 3 mps 757 mmHg 28%
    15:00 -2°C° 0 mm 3 mps 757 mmHg 29%
    16:00 -2°C° 0 mm 3 mps 756 mmHg 30%
    17:00 -4°C° 0 mm 3 mps 756 mmHg 33%
    18:00 -4°C° 0 mm 2 mps 757 mmHg 37%
    19:00 -4°C° 0 mm 2 mps 757 mmHg 40%
    20:00 -4°C° 0 mm 2 mps 757 mmHg 41%
    21:00 -2°C° 0 mm 1 mps 757 mmHg 41%
    22:00 -2°C° 0 mm 1 mps 757 mmHg 42%
    23:00 -2°C° 0 mm 1 mps 756 mmHg 42%

    24 February, Sunday

    Time Temperature Precipitation Wind Pressure Humidity
    00:00 -2°C° 0 mm 1 mps 756 mmHg 42%
    01:00 -3°C° 0 mm 1 mps 756 mmHg 42%
    02:00 -2°C° 0 mm 1 mps 756 mmHg 41%
    03:00 -2°C° 0 mm 1 mps 756 mmHg 41%
    04:00 -2°C° 0 mm 1 mps 756 mmHg 40%
    05:00 -2°C° 0 mm 1 mps 755 mmHg 40%
    06:00 -2°C° 0 mm 1 mps 755 mmHg 41%
    07:00 -2°C° 0 mm 1 mps 755 mmHg 41%
    08:00 -3°C° 0 mm 2 mps 755 mmHg 38%
    09:00 -2°C° 0 mm 2 mps 755 mmHg 34%
    10:00 -1°C° 0 mm 2 mps 755 mmHg 31%
    11:00 -1°C° 0 mm 2 mps 755 mmHg 31%
    12:00 +1°C° 0 mm 2 mps 754 mmHg 31%
    13:00 +1°C° 0 mm 3 mps 754 mmHg 32%
    14:00 +1°C° 0 mm 3 mps 754 mmHg 34%
    15:00 +2°C° 0 mm 2 mps 754 mmHg 37%
    16:00 +2°C° 0 mm 2 mps 754 mmHg 39%
    17:00 +1°C° 0 mm 2 mps 754 mmHg 43%
    18:00 -1°C° 0 mm 2 mps 754 mmHg 46%
    19:00 -2°C° 0 mm 2 mps 754 mmHg 49%
    20:00 -2°C° 0 mm 2 mps 754 mmHg 50%
    21:00 -2°C° 0 mm 2 mps 754 mmHg 52%
    22:00 -2°C° 0 mm 2 mps 754 mmHg 53%
    23:00 -2°C° 0 mm 2 mps 754 mmHg 53%

    25 February, Monday

    Time Temperature Precipitation Wind Pressure Humidity
    00:00 -1°C° 0 mm 2 mps 754 mmHg 54%
    01:00 -1°C° 0 mm 2 mps 754 mmHg 54%
    02:00 -2°C° 0 mm 2 mps 754 mmHg 56%
    03:00 -2°C° 0 mm 2 mps 754 mmHg 57%
    04:00 -2°C° 0 mm 2 mps 754 mmHg 59%
    05:00 -2°C° 0 mm 2 mps 754 mmHg 59%
    06:00 -2°C° 0 mm 2 mps 754 mmHg 59%
    07:00 -2°C° 0 mm 2 mps 754 mmHg 59%
    08:00 -1°C° 0 mm 2 mps 753 mmHg 60%
    09:00 0°C° 0 mm 3 mps 753 mmHg 61%
    10:00 0°C° 0 mm 3 mps 753 mmHg 62%
    11:00 0°C° 0 mm 4 mps 753 mmHg 59%
    12:00 +1°C° 0 mm 4 mps 752 mmHg 56%
    13:00 +2°C° 0 mm 5 mps 752 mmHg 53%
    14:00 +3°C° 0 mm 4 mps 752 mmHg 57%
    15:00 +3°C° 0 mm 4 mps 751 mmHg 61%
    16:00 +3°C° 0 mm 4 mps 751 mmHg 65%
    17:00 +1°C° 0 mm 4 mps 751 mmHg 73%
    18:00 +1°C° 0 mm 3 mps 752 mmHg 81%
    19:00 0°C° 0 mm 3 mps 752 mmHg 89%
    20:00 0°C° 0 mm 3 mps 752 mmHg 90%
    21:00 -1°C° 0 mm 3 mps 752 mmHg 90%
    22:00 -1°C° 0 mm 3 mps 752 mmHg 91%
    23:00 -1°C° 0 mm 3 mps 752 mmHg 91%
    Show more